Find Starlink 34950

NORAD ID: 65193 Int'l Des: 2025-175 Owner: SPXS Country: US Constellation: starlink operational
LEOCIRCULARRETROGRADESSO

Live Position

Loading 3D Globe...

About Starlink 34950

Description loading...

Upcoming Passes

Passes for default location (London). Set your location on the main map for personalized predictions.

Altitude History

Loading altitude history...

Two-Line Element Set

1 65193U 25175V 26105.57540400 .00002296 00000-0 16326-3 0 9993
2 65193 97.6043 339.0587 0002689 84.6247 275.5286 15.05652456 38168
Epoch: Apr 15, 2026 • Age: 11 hours

Current Status

Altitude 578.3 km
Velocity 7.57 km/s
Sub-Earth Point -73.48°S, 78.91°W
Launch Date Aug 14, 2025
Age 0.6 years
Type internet

Technical Details

Classification Payload
Mass 575.00 kg
Dry Mass 530.00 kg
Total Mass 575.00 kg
Length 0.30 m
Diameter 4.10 m
Span 29.00 m
Shape Box + pan
Manufacturer SPXS
Bus Type Starlink V2MO
Phase Status In Orbit
Owner/State SPXS/US

Most Searched